THOR ABLESTAR DEB, 417

Orbit data source: Space-Track

THOR ABLESTAR DEB, 417 is space debris in LEO originally from a launch on Thu, 29 Jun 1961 UTC launched from the Air Force Eastern Test Range (AFETR). Debris objects in space refer to the collection of defunct objects orbiting the Earth. Examples of debris include non-operational satellites, rocket bodies, and fragments generated from explosions, collisions, or faulty payload assembly.

Loading next visibility...
Identifier
417, 1961-015ES
Orbit
LEO
Last TLE update
13 hours ago
Origin
Manufacturer
Unknown
Mission
Spacecraft
Bus & Motor
Unknown
Mass
Unknown
Launch date (UTC)
1961-06-29 (64 years ago)
Launch vehicle
Unknown
Launch site
Air Force Eastern Test Range (AFETR)
Object type
Payload
Rocket body
Debris
Shape & HBR
Unknown
Radar Cross Section
Small (<0.1 m²)

Expand to show TLE details & history

TLE from 13 hours ago
0 THOR ABLESTAR DEB
1 00417U 61015ES  25191.54606981  .00000204  00000-0  13100-3 0  9996
2 00417  66.7460   9.0718 0071166 342.5201  17.3443 14.20174928288970
Epoch: 2025-07-10T13:06Z
TLE epoch observation values (Epoch: 2025-07-10T13:06:20.431Z)
Latitude
-0.00005°
Longitude
-116.22415°
Altitude
777.96 km
Speed
7.491 km/s
True Right ascension
00h 36m 17s
True Declination
0° 00' 00"
Sunlit
Object was in daylight at epoch
Visualization orbit readout
Latitude
-34.63665°
Longitude
79.57456°
Altitude
865.545 km
Speed
7.404 km/s
Apparent Right ascension
11h 25m 44s
Apparent Declination
-80° 38' 26"
Sunlit
Object is in daylight
Visualization observer readout
Local Sidereal Time
14:14:19
Azimuth
187.453° SSW
Elevation
-32.727°
Doppler factor
1
Orbital elements
Apogee altitude
874.387 km
Perigee altitude
771.89 km
Semi-major axis
7,201.275 km
Eccentricity
0.00712
Inclination
66.746°
RAAN
9.0718°
Arg. of periapsis
342.5201°
True anomaly
Unknown
Mean anomaly
17.3443°
Eccentric anomaly
Unknown
Mean motion
3.55164 °/min
Orbital period
101.36 mins
BSTAR
0.000131
Loading maneuver chart data...
Loading SW <> Apogee altitude chart data...

THOR ABLESTAR DEB Visibility forecast

Observer location: undefined°, undefined°

Span
Click to sort rows by Start time (UTC) header in descending order
Start Az.
Max El. time (UTC)
Max El. Az.
Max El.
End time (UTC)
End Az.
9 mins2025-07-11 12:52:50.190Z183.493° SSW2025-07-11 12:57:50.190Z104.729° ESE35.806°2025-07-11 13:01:50.190Z44.383° NE
7 mins2025-07-11 14:38:50.190Z264.899° W2025-07-11 14:41:50.190Z308.123° NW24.028°2025-07-11 14:45:50.190Z2.722° NNE
9 mins2025-07-11 21:45:50.190Z351.283° N2025-07-11 21:49:50.190Z52.437° ENE32.664°2025-07-11 21:54:50.190Z120.509° SE
8 mins2025-07-11 23:30:50.190Z298.6° NW2025-07-11 23:33:50.190Z253.197° W28.015°2025-07-11 23:38:50.190Z190.664° SSW
|